Location: Oshawa
(43.9000°N, 78.8670°W)
Time: 02:48:01
(UTC-04:00)

ITAMSAT 1 - Visible Passes

Search period start: 28 May 2017 00:00
Search period end: 07 June 2017 00:00
Orbit: 784 x 797 km, 98.8° (Epoch: 27 May)

Date Brightness Start Highest point End Pass type
(mag) Time Alt. Az. Time Alt. Az. Time Alt. Az.
28 May 10.1 03:28:38 10° NE 03:31:33 15° E 03:34:27 10° SE visible
29 May 8.1 04:37:00 10° NNE 04:42:11 63° ESE 04:47:21 10° S visible
30 May 9.1 04:07:57 10° NNE 04:12:42 34° E 04:17:24 10° SSE visible
31 May 10.0 03:39:26 10° NE 03:43:05 19° E 03:46:43 10° SE visible
01 Jun 7.9 04:48:22 10° NNE 04:53:36 79° ESE 04:58:50 10° S visible
02 Jun 8.8 04:19:12 10° NNE 04:24:10 43° E 04:29:06 10° S visible
03 Jun 9.7 03:50:26 10° NE 03:54:36 24° E 03:58:45 10° SSE visible
04 Jun 10.2 03:22:40 10° ENE 03:24:54 13° E 03:27:08 10° ESE visible
05 Jun 8.4 04:30:29 10° NNE 04:35:37 54° E 04:40:44 10° S visible
06 Jun 9.4 04:01:33 10° NE 04:06:06 29° E 04:10:37 10° SSE visible
